Year,Month,Day,Hour,Minute,Value (Times are PST for temperature in C)
2018,08,09,00,00,22.70
2018,08,09,00,01,22.80
2018,08,09,00,02,22.80
2018,08,09,00,03,22.80
2018,08,09,00,04,22.80
2018,08,09,00,05,22.80
2018,08,09,00,06,22.80
2018,08,09,00,07,22.80
2018,08,09,00,08,22.80
2018,08,09,00,09,22.80
2018,08,09,00,10,22.80
2018,08,09,00,11,22.80
2018,08,09,00,12,22.70
2018,08,09,00,13,22.70
2018,08,09,00,14,22.70
2018,08,09,00,15,22.70
2018,08,09,00,16,22.70
2018,08,09,00,17,22.70
2018,08,09,00,18,22.70
2018,08,09,00,19,22.70
2018,08,09,00,20,22.70
2018,08,09,00,21,22.70
2018,08,09,00,22,22.70
2018,08,09,00,23,22.70
2018,08,09,00,24,22.70
2018,08,09,00,25,22.70
2018,08,09,00,26,22.70
2018,08,09,00,27,22.60
2018,08,09,00,28,22.60
2018,08,09,00,29,22.50
2018,08,09,00,30,22.50
2018,08,09,00,31,22.40
2018,08,09,00,32,22.40
2018,08,09,00,33,22.30
2018,08,09,00,34,22.30
2018,08,09,00,35,22.30
2018,08,09,00,36,22.30
2018,08,09,00,37,22.30
2018,08,09,00,38,22.20
2018,08,09,00,39,22.20
2018,08,09,00,40,22.20
2018,08,09,00,41,22.10
2018,08,09,00,42,22.10
2018,08,09,00,43,22.10
2018,08,09,00,44,22.00
2018,08,09,00,45,22.00
2018,08,09,00,46,22.00
2018,08,09,00,47,21.90
2018,08,09,00,48,21.90
2018,08,09,00,49,21.90
2018,08,09,00,50,21.90
2018,08,09,00,51,21.80
2018,08,09,00,52,21.80
2018,08,09,00,53,21.80
2018,08,09,00,54,21.70
2018,08,09,00,55,21.70
2018,08,09,00,56,21.70
2018,08,09,00,57,21.60
2018,08,09,00,58,21.60
2018,08,09,00,59,21.50
2018,08,09,01,00,21.50
2018,08,09,01,01,21.40
2018,08,09,01,02,21.40
2018,08,09,01,03,21.40
2018,08,09,01,04,21.40
2018,08,09,01,05,21.30
2018,08,09,01,06,21.30
2018,08,09,01,07,21.30
2018,08,09,01,08,21.30
2018,08,09,01,09,21.30
2018,08,09,01,10,21.30
2018,08,09,01,11,21.30
2018,08,09,01,12,21.30
2018,08,09,01,13,21.30
2018,08,09,01,14,21.20
2018,08,09,01,15,21.20
2018,08,09,01,16,21.20
2018,08,09,01,17,21.20
2018,08,09,01,18,21.20
2018,08,09,01,19,21.20
2018,08,09,01,20,21.20
2018,08,09,01,21,21.10
2018,08,09,01,22,21.10
2018,08,09,01,23,21.10
2018,08,09,01,24,21.10
2018,08,09,01,25,21.10
2018,08,09,01,26,21.10
2018,08,09,01,27,21.00
2018,08,09,01,28,21.00
2018,08,09,01,29,21.00
2018,08,09,01,30,20.90
2018,08,09,01,31,20.90
2018,08,09,01,32,20.90
2018,08,09,01,33,20.90
2018,08,09,01,34,20.80
2018,08,09,01,35,20.80
2018,08,09,01,36,20.80
2018,08,09,01,37,20.80
2018,08,09,01,38,20.70
2018,08,09,01,39,20.70
2018,08,09,01,40,20.60
2018,08,09,01,41,20.60
2018,08,09,01,42,20.50
2018,08,09,01,43,20.50
2018,08,09,01,44,20.40
2018,08,09,01,45,20.30
2018,08,09,01,46,20.30
2018,08,09,01,47,20.20
2018,08,09,01,48,20.10
2018,08,09,01,49,20.00
2018,08,09,01,50,19.90
2018,08,09,01,51,19.80
2018,08,09,01,52,19.70
2018,08,09,01,53,19.50
2018,08,09,01,54,19.40
2018,08,09,01,55,19.30
2018,08,09,01,56,19.20
2018,08,09,01,57,19.10
2018,08,09,01,58,19.00
2018,08,09,01,59,18.90
2018,08,09,02,00,18.80
2018,08,09,02,01,18.70
2018,08,09,02,02,18.60
2018,08,09,02,03,18.50
2018,08,09,02,04,18.50
2018,08,09,02,05,18.40
2018,08,09,02,06,18.30
2018,08,09,02,07,18.30
2018,08,09,02,08,18.20
2018,08,09,02,09,18.20
2018,08,09,02,10,18.10
2018,08,09,02,11,18.10
2018,08,09,02,12,18.10
2018,08,09,02,13,18.10
2018,08,09,02,14,18.10
2018,08,09,02,15,18.10
2018,08,09,02,16,18.20
2018,08,09,02,17,18.20
2018,08,09,02,18,18.20
2018,08,09,02,19,18.20
2018,08,09,02,20,18.20
2018,08,09,02,21,18.20
2018,08,09,02,22,18.30
2018,08,09,02,23,18.30
2018,08,09,02,24,18.30
2018,08,09,02,25,18.30
2018,08,09,02,26,18.30
2018,08,09,02,27,18.30
2018,08,09,02,28,18.30
2018,08,09,02,29,18.30
2018,08,09,02,30,18.30
2018,08,09,02,31,18.20
2018,08,09,02,32,18.20
2018,08,09,02,33,18.20
2018,08,09,02,34,18.20
2018,08,09,02,35,18.20
2018,08,09,02,36,18.20
2018,08,09,02,37,18.10
2018,08,09,02,38,18.10
2018,08,09,02,39,18.10
2018,08,09,02,40,18.00
2018,08,09,02,41,18.00
2018,08,09,02,42,17.90
2018,08,09,02,43,17.90
2018,08,09,02,44,17.90
2018,08,09,02,45,17.80
2018,08,09,02,46,17.80
2018,08,09,02,47,17.80
2018,08,09,02,48,17.70
2018,08,09,02,49,17.70
2018,08,09,02,50,17.60
2018,08,09,02,51,17.60
2018,08,09,02,52,17.50
2018,08,09,02,53,17.50
2018,08,09,02,54,17.40
2018,08,09,02,55,17.40
2018,08,09,02,56,17.30
2018,08,09,02,57,17.30
2018,08,09,02,58,17.20
2018,08,09,02,59,17.20
2018,08,09,03,00,17.10
2018,08,09,03,01,17.10
2018,08,09,03,02,17.10
2018,08,09,03,03,17.00
2018,08,09,03,04,17.10
2018,08,09,03,05,17.10
2018,08,09,03,06,17.10
2018,08,09,03,07,17.10
2018,08,09,03,08,17.00
2018,08,09,03,09,17.00
2018,08,09,03,10,17.00
2018,08,09,03,11,16.90
2018,08,09,03,12,16.90
2018,08,09,03,13,16.80
2018,08,09,03,14,16.80
2018,08,09,03,15,16.70
2018,08,09,03,16,16.70
2018,08,09,03,17,16.70
2018,08,09,03,18,16.70
2018,08,09,03,19,16.70
2018,08,09,03,20,16.70
2018,08,09,03,21,16.70
2018,08,09,03,22,16.70
2018,08,09,03,23,16.70
2018,08,09,03,24,16.70
2018,08,09,03,25,16.80
2018,08,09,03,26,16.80
2018,08,09,03,27,16.80
2018,08,09,03,28,16.80
2018,08,09,03,29,16.80
2018,08,09,03,30,16.80
2018,08,09,03,31,16.80
2018,08,09,03,32,16.70
2018,08,09,03,33,16.70
2018,08,09,03,34,16.70
2018,08,09,03,35,16.70
2018,08,09,03,36,16.60
2018,08,09,03,37,16.60
2018,08,09,03,38,16.50
2018,08,09,03,39,16.50
2018,08,09,03,40,16.40
2018,08,09,03,41,16.40
2018,08,09,03,42,16.50
2018,08,09,03,43,16.50
2018,08,09,03,44,16.60
2018,08,09,03,45,16.60
2018,08,09,03,46,16.60
2018,08,09,03,47,16.60
2018,08,09,03,48,16.60
2018,08,09,03,49,16.70
2018,08,09,03,50,16.70
2018,08,09,03,51,16.70
2018,08,09,03,52,16.70
2018,08,09,03,53,16.70
2018,08,09,03,54,16.60
2018,08,09,03,55,16.60
2018,08,09,03,56,16.60
2018,08,09,03,57,16.60
2018,08,09,03,58,16.60
2018,08,09,03,59,16.60
2018,08,09,04,00,16.70
2018,08,09,04,01,16.70
2018,08,09,04,02,16.70
2018,08,09,04,03,16.80
2018,08,09,04,04,16.80
2018,08,09,04,05,16.80
2018,08,09,04,06,16.80
2018,08,09,04,07,16.80
2018,08,09,04,08,16.80
2018,08,09,04,09,16.80
2018,08,09,04,10,16.80
2018,08,09,04,11,16.80
2018,08,09,04,12,16.80
2018,08,09,04,13,16.80
2018,08,09,04,14,16.80
2018,08,09,04,15,16.80
2018,08,09,04,16,16.80
2018,08,09,04,17,16.80
2018,08,09,04,18,16.70
2018,08,09,04,19,16.70
2018,08,09,04,20,16.70
2018,08,09,04,21,16.70
2018,08,09,04,22,16.70
2018,08,09,04,23,16.60
2018,08,09,04,24,16.60
2018,08,09,04,25,16.60
2018,08,09,04,26,16.60
2018,08,09,04,27,16.50
2018,08,09,04,28,16.50
2018,08,09,04,29,16.50
2018,08,09,04,30,16.50
2018,08,09,04,31,16.50
2018,08,09,04,32,16.60
2018,08,09,04,33,16.60
2018,08,09,04,34,16.60
2018,08,09,04,35,16.60
2018,08,09,04,36,16.60
2018,08,09,04,37,16.60
2018,08,09,04,38,16.60
2018,08,09,04,39,16.60
2018,08,09,04,40,16.60
2018,08,09,04,41,16.60
2018,08,09,04,42,16.50
2018,08,09,04,43,16.50
2018,08,09,04,44,16.50
2018,08,09,04,45,16.40
2018,08,09,04,46,16.40
2018,08,09,04,47,16.40
2018,08,09,04,48,16.40
2018,08,09,04,49,16.40
2018,08,09,04,50,16.40
2018,08,09,04,51,16.40
2018,08,09,04,52,16.40
2018,08,09,04,53,16.40
2018,08,09,04,54,16.30
2018,08,09,04,55,16.30
2018,08,09,04,56,16.40
2018,08,09,04,57,16.40
2018,08,09,04,58,16.40
2018,08,09,04,59,16.40
2018,08,09,05,00,16.40
2018,08,09,05,01,16.40
2018,08,09,05,02,16.30
2018,08,09,05,03,16.30
2018,08,09,05,04,16.30
2018,08,09,05,05,16.30
2018,08,09,05,06,16.30
2018,08,09,05,07,16.30
2018,08,09,05,08,16.30
2018,08,09,05,09,16.30
2018,08,09,05,10,16.30
2018,08,09,05,11,16.30
2018,08,09,05,12,16.20
2018,08,09,05,13,16.20
2018,08,09,05,14,16.20
2018,08,09,05,15,16.20
2018,08,09,05,16,16.20
2018,08,09,05,17,16.20
2018,08,09,05,18,16.20
2018,08,09,05,19,16.20
2018,08,09,05,20,16.20
2018,08,09,05,21,16.20
2018,08,09,05,22,16.20
2018,08,09,05,23,16.30
2018,08,09,05,24,16.30
2018,08,09,05,25,16.30
2018,08,09,05,26,16.30
2018,08,09,05,27,16.30
2018,08,09,05,28,16.30
2018,08,09,05,29,16.30
2018,08,09,05,30,16.20
2018,08,09,05,31,16.20
2018,08,09,05,32,16.10
2018,08,09,05,33,16.10
2018,08,09,05,34,16.10
2018,08,09,05,35,16.00
2018,08,09,05,36,16.00
2018,08,09,05,37,16.00
2018,08,09,05,38,16.00
2018,08,09,05,39,15.90
2018,08,09,05,40,15.90
2018,08,09,05,41,15.90
2018,08,09,05,42,16.00
2018,08,09,05,43,16.20
2018,08,09,05,44,16.30
2018,08,09,05,45,16.40
2018,08,09,05,46,16.50
2018,08,09,05,47,16.60
2018,08,09,05,48,16.60
2018,08,09,05,49,16.60
2018,08,09,05,50,16.60
2018,08,09,05,51,16.70
2018,08,09,05,52,16.70
2018,08,09,05,53,16.70
2018,08,09,05,54,16.70
2018,08,09,05,55,16.70
2018,08,09,05,56,16.80
2018,08,09,05,57,16.80
2018,08,09,05,58,16.90
2018,08,09,05,59,16.90
2018,08,09,06,00,16.90
2018,08,09,06,01,16.90
2018,08,09,06,02,16.90
2018,08,09,06,03,16.90
2018,08,09,06,04,16.90
2018,08,09,06,05,16.80
2018,08,09,06,06,16.80
2018,08,09,06,07,16.80
2018,08,09,06,08,16.80
2018,08,09,06,09,16.80
2018,08,09,06,10,16.80
2018,08,09,06,11,16.80
2018,08,09,06,12,16.80
2018,08,09,06,13,16.80
2018,08,09,06,14,16.80
2018,08,09,06,15,16.80
2018,08,09,06,16,16.90
2018,08,09,06,17,16.90
2018,08,09,06,18,16.90
2018,08,09,06,19,16.90
2018,08,09,06,20,16.90
2018,08,09,06,21,16.90
2018,08,09,06,22,16.90
2018,08,09,06,23,16.90
2018,08,09,06,24,16.90
2018,08,09,06,25,16.80
2018,08,09,06,26,16.80
2018,08,09,06,27,16.80
2018,08,09,06,28,16.70
2018,08,09,06,29,16.70
2018,08,09,06,30,16.60
2018,08,09,06,31,16.50
2018,08,09,06,32,16.40
2018,08,09,06,33,16.40
2018,08,09,06,34,16.30
2018,08,09,06,35,16.20
2018,08,09,06,36,16.10
2018,08,09,06,37,16.00
2018,08,09,06,38,15.90
2018,08,09,06,39,15.80
2018,08,09,06,40,15.80
2018,08,09,06,41,15.70
2018,08,09,06,42,15.70
2018,08,09,06,43,15.70
2018,08,09,06,44,15.80
2018,08,09,06,45,15.90
2018,08,09,06,46,16.10
2018,08,09,06,47,16.20
2018,08,09,06,48,16.30
2018,08,09,06,49,16.40
2018,08,09,06,50,16.50
2018,08,09,06,51,16.60
2018,08,09,06,52,16.70
2018,08,09,06,53,16.80
2018,08,09,06,54,16.80
2018,08,09,06,55,16.80
2018,08,09,06,56,16.80
2018,08,09,06,57,16.80
2018,08,09,06,58,16.80
2018,08,09,06,59,16.80
2018,08,09,07,00,16.80
2018,08,09,07,01,16.70
2018,08,09,07,02,16.70
2018,08,09,07,03,16.60
2018,08,09,07,04,16.60
2018,08,09,07,05,16.50
2018,08,09,07,06,16.40
2018,08,09,07,07,16.40
2018,08,09,07,08,16.30
2018,08,09,07,09,16.30
2018,08,09,07,10,16.30
2018,08,09,07,11,16.30
2018,08,09,07,12,16.30
2018,08,09,07,13,16.30
2018,08,09,07,14,16.30
2018,08,09,07,15,16.30
2018,08,09,07,16,16.30
2018,08,09,07,17,16.30
2018,08,09,07,18,16.30
2018,08,09,07,19,16.30
2018,08,09,07,20,16.30
2018,08,09,07,21,16.40
2018,08,09,07,22,16.40
2018,08,09,07,23,16.40
2018,08,09,07,24,16.40
2018,08,09,07,25,16.40
2018,08,09,07,26,16.40
2018,08,09,07,27,16.50
2018,08,09,07,28,16.50
2018,08,09,07,29,16.50
2018,08,09,07,30,16.60
2018,08,09,07,31,16.60
2018,08,09,07,32,16.60
2018,08,09,07,33,16.70
2018,08,09,07,34,16.70
2018,08,09,07,35,16.80
2018,08,09,07,36,16.90
2018,08,09,07,37,16.90
2018,08,09,07,38,17.00
2018,08,09,07,39,17.00
2018,08,09,07,40,17.10
2018,08,09,07,41,17.20
2018,08,09,07,42,17.20
2018,08,09,07,43,17.30
2018,08,09,07,44,17.30
2018,08,09,07,45,17.30
2018,08,09,07,46,17.40
2018,08,09,07,47,17.40
2018,08,09,07,48,17.50
2018,08,09,07,49,17.50
2018,08,09,07,50,17.50
2018,08,09,07,51,17.60
2018,08,09,07,52,17.60
2018,08,09,07,53,17.70
2018,08,09,07,54,17.70
2018,08,09,07,55,17.80
2018,08,09,07,56,17.80
2018,08,09,07,57,17.90
2018,08,09,07,58,17.90
2018,08,09,07,59,18.00
2018,08,09,08,00,18.00
2018,08,09,08,01,18.10
2018,08,09,08,02,18.10
2018,08,09,08,03,18.20
2018,08,09,08,04,18.20
2018,08,09,08,05,18.30
2018,08,09,08,06,18.30
2018,08,09,08,07,18.40
2018,08,09,08,08,18.50
2018,08,09,08,09,18.50
2018,08,09,08,10,18.60
2018,08,09,08,11,18.70
2018,08,09,08,12,18.80
2018,08,09,08,13,18.90
2018,08,09,08,14,19.00
2018,08,09,08,15,19.10
2018,08,09,08,16,19.20
2018,08,09,08,17,19.30
2018,08,09,08,18,19.40
2018,08,09,08,19,19.50
2018,08,09,08,20,19.60
2018,08,09,08,21,19.80
2018,08,09,08,22,19.90
2018,08,09,08,23,20.00
2018,08,09,08,24,20.20
2018,08,09,08,25,20.40
2018,08,09,08,26,20.50
2018,08,09,08,27,20.50
2018,08,09,08,28,20.60
2018,08,09,08,29,20.70
2018,08,09,08,30,20.80
2018,08,09,08,31,20.90
2018,08,09,08,32,21.00
2018,08,09,08,33,21.10
2018,08,09,08,34,21.10
2018,08,09,08,35,21.10
2018,08,09,08,36,21.10
2018,08,09,08,37,21.10
2018,08,09,08,38,21.10
2018,08,09,08,39,21.10
2018,08,09,08,40,21.10
2018,08,09,08,41,21.10
2018,08,09,08,42,21.20
2018,08,09,08,43,21.20
2018,08,09,08,44,21.20
2018,08,09,08,45,21.20
2018,08,09,08,46,21.30
2018,08,09,08,47,21.30
2018,08,09,08,48,21.40
2018,08,09,08,49,21.40
2018,08,09,08,50,21.50
2018,08,09,08,51,21.60
2018,08,09,08,52,21.60
2018,08,09,08,53,21.70
2018,08,09,08,54,21.80
2018,08,09,08,55,21.80
2018,08,09,08,56,21.90
2018,08,09,08,57,21.90
2018,08,09,08,58,21.90
2018,08,09,08,59,21.90
2018,08,09,09,00,22.00
2018,08,09,09,01,22.00
2018,08,09,09,02,22.00
2018,08,09,09,03,22.10
2018,08,09,09,04,22.10
2018,08,09,09,05,22.10
2018,08,09,09,06,22.10
2018,08,09,09,07,22.10
2018,08,09,09,08,22.10
2018,08,09,09,09,22.20
2018,08,09,09,10,22.20
2018,08,09,09,11,22.20
2018,08,09,09,12,22.30
2018,08,09,09,13,22.40
2018,08,09,09,14,22.50
2018,08,09,09,15,22.60
2018,08,09,09,16,22.70
2018,08,09,09,17,22.80
2018,08,09,09,18,22.80
2018,08,09,09,19,22.80
2018,08,09,09,20,22.80
2018,08,09,09,21,22.90
2018,08,09,09,22,23.00
2018,08,09,09,23,23.10
2018,08,09,09,24,23.20
2018,08,09,09,25,23.20
2018,08,09,09,26,23.30
2018,08,09,09,27,23.40
2018,08,09,09,28,23.40
2018,08,09,09,29,23.40
2018,08,09,09,30,23.30
2018,08,09,09,31,23.30
2018,08,09,09,32,23.30
2018,08,09,09,33,23.20
2018,08,09,09,34,23.20
2018,08,09,09,35,23.30
2018,08,09,09,36,23.30
2018,08,09,09,37,23.30
2018,08,09,09,38,23.30
2018,08,09,09,39,23.40
2018,08,09,09,40,23.50
2018,08,09,09,41,23.60
2018,08,09,09,42,23.70
2018,08,09,09,43,23.80
2018,08,09,09,44,24.00
2018,08,09,09,45,24.00
2018,08,09,09,46,24.10
2018,08,09,09,47,24.00
2018,08,09,09,48,23.90
2018,08,09,09,49,23.90
2018,08,09,09,50,23.80
2018,08,09,09,51,23.70
2018,08,09,09,52,23.70
2018,08,09,09,53,23.70
2018,08,09,09,54,23.70
2018,08,09,09,55,23.70
2018,08,09,09,56,23.70
2018,08,09,09,57,23.70
2018,08,09,09,58,23.60
2018,08,09,09,59,23.60
2018,08,09,10,00,23.50
2018,08,09,10,01,23.50
2018,08,09,10,02,23.40
2018,08,09,10,03,23.40
2018,08,09,10,04,23.50
2018,08,09,10,05,23.40
2018,08,09,10,06,23.50
2018,08,09,10,07,23.50
2018,08,09,10,08,23.60
2018,08,09,10,09,23.60
2018,08,09,10,10,23.60
2018,08,09,10,11,23.60
2018,08,09,10,12,23.60
2018,08,09,10,13,23.60
2018,08,09,10,14,23.70
2018,08,09,10,15,23.70
2018,08,09,10,16,23.70
2018,08,09,10,17,23.70
2018,08,09,10,18,23.70
2018,08,09,10,19,23.60
2018,08,09,10,20,23.60
2018,08,09,10,21,23.60
2018,08,09,10,22,23.60
2018,08,09,10,23,23.50
2018,08,09,10,24,23.50
2018,08,09,10,25,23.50
2018,08,09,10,26,23.60
2018,08,09,10,27,23.60
2018,08,09,10,28,23.50
2018,08,09,10,29,23.50
2018,08,09,10,30,23.60
2018,08,09,10,31,23.60
2018,08,09,10,32,23.60
2018,08,09,10,33,23.50
2018,08,09,10,34,23.40
2018,08,09,10,35,23.40
2018,08,09,10,36,23.30
2018,08,09,10,37,23.30
2018,08,09,10,38,23.30
2018,08,09,10,39,23.40
2018,08,09,10,40,23.40
2018,08,09,10,41,23.40
2018,08,09,10,42,23.40
2018,08,09,10,43,23.40
2018,08,09,10,44,23.40
2018,08,09,10,45,23.50
2018,08,09,10,46,23.50
2018,08,09,10,47,23.50
2018,08,09,10,48,23.60
2018,08,09,10,49,23.70
2018,08,09,10,50,23.80
2018,08,09,10,51,23.80
2018,08,09,10,52,23.90
2018,08,09,10,53,23.90
2018,08,09,10,54,24.00
2018,08,09,10,55,24.00
2018,08,09,10,56,24.10
2018,08,09,10,57,24.20
2018,08,09,10,58,24.30
2018,08,09,10,59,24.30
2018,08,09,11,00,24.30
2018,08,09,11,01,24.40
2018,08,09,11,02,24.40
2018,08,09,11,03,24.40
2018,08,09,11,04,24.40
2018,08,09,11,05,24.40
2018,08,09,11,06,24.40
2018,08,09,11,07,24.40
2018,08,09,11,08,24.40
2018,08,09,11,09,24.40
2018,08,09,11,10,24.40
2018,08,09,11,11,24.30
2018,08,09,11,12,24.30
2018,08,09,11,13,24.30
2018,08,09,11,14,24.30
2018,08,09,11,15,24.20
2018,08,09,11,16,24.20
2018,08,09,11,17,24.10
2018,08,09,11,18,24.10
2018,08,09,11,19,24.00
2018,08,09,11,20,24.00
2018,08,09,11,21,24.00
2018,08,09,11,22,24.00
2018,08,09,11,23,24.00
2018,08,09,11,24,24.10
2018,08,09,11,25,24.20
2018,08,09,11,26,24.20
2018,08,09,11,27,24.30
2018,08,09,11,28,24.30
2018,08,09,11,29,24.40
2018,08,09,11,30,24.40
2018,08,09,11,31,24.40
2018,08,09,11,32,24.40
2018,08,09,11,33,24.40
2018,08,09,11,34,24.50
2018,08,09,11,35,24.50
2018,08,09,11,36,24.50
2018,08,09,11,37,24.50
2018,08,09,11,38,24.50
2018,08,09,11,39,24.50
2018,08,09,11,40,24.50
2018,08,09,11,41,24.60
2018,08,09,11,42,24.60
2018,08,09,11,43,24.70
2018,08,09,11,44,24.80
2018,08,09,11,45,24.70
2018,08,09,11,46,24.70
2018,08,09,11,47,24.70
2018,08,09,11,48,24.80
2018,08,09,11,49,24.80
2018,08,09,11,50,24.80
2018,08,09,11,51,24.80
2018,08,09,11,52,24.80
2018,08,09,11,53,24.80
2018,08,09,11,54,24.80
2018,08,09,11,55,24.80
2018,08,09,11,56,24.80
2018,08,09,11,57,24.70
2018,08,09,11,58,24.60
2018,08,09,11,59,24.50
2018,08,09,12,00,24.40
2018,08,09,12,01,24.30
2018,08,09,12,02,24.40
2018,08,09,12,03,24.40
2018,08,09,12,04,24.60
2018,08,09,12,05,24.70
2018,08,09,12,06,24.70
2018,08,09,12,07,24.70
2018,08,09,12,08,24.60
2018,08,09,12,09,24.60
2018,08,09,12,10,24.60
2018,08,09,12,11,24.60
2018,08,09,12,12,24.60
2018,08,09,12,13,24.60
2018,08,09,12,14,24.70
2018,08,09,12,15,24.70
2018,08,09,12,16,24.70
2018,08,09,12,17,24.70
2018,08,09,12,18,24.70
2018,08,09,12,19,24.70
2018,08,09,12,20,24.80
2018,08,09,12,21,24.80
2018,08,09,12,22,24.90
2018,08,09,12,23,24.90
2018,08,09,12,24,24.90
2018,08,09,12,25,24.90
2018,08,09,12,26,25.00
2018,08,09,12,27,25.00
2018,08,09,12,28,25.00
2018,08,09,12,29,25.10
2018,08,09,12,30,25.10
2018,08,09,12,31,25.10
2018,08,09,12,32,25.10
2018,08,09,12,33,25.10
2018,08,09,12,34,25.10
2018,08,09,12,35,25.10
2018,08,09,12,36,25.10
2018,08,09,12,37,25.20
2018,08,09,12,38,25.20
2018,08,09,12,39,25.20
2018,08,09,12,40,25.30
2018,08,09,12,41,25.30
2018,08,09,12,42,25.40
2018,08,09,12,43,25.50
2018,08,09,12,44,25.60
2018,08,09,12,45,25.70
2018,08,09,12,46,25.80
2018,08,09,12,47,25.80
2018,08,09,12,48,25.80
2018,08,09,12,49,25.70
2018,08,09,12,50,25.60
2018,08,09,12,51,25.50
2018,08,09,12,52,25.60
2018,08,09,12,53,25.60
2018,08,09,12,54,25.70
2018,08,09,12,55,25.70
2018,08,09,12,56,25.60
2018,08,09,12,57,25.70
2018,08,09,12,58,25.70
2018,08,09,12,59,25.80
2018,08,09,13,00,25.90
2018,08,09,13,01,25.90
2018,08,09,13,02,25.90
2018,08,09,13,03,25.90
2018,08,09,13,04,25.90
2018,08,09,13,05,26.00
2018,08,09,13,06,26.00
2018,08,09,13,07,26.00
2018,08,09,13,08,26.00
2018,08,09,13,09,26.10
2018,08,09,13,10,26.20
2018,08,09,13,11,26.20
2018,08,09,13,12,26.20
2018,08,09,13,13,26.30
2018,08,09,13,14,26.30
2018,08,09,13,15,26.30
2018,08,09,13,16,26.40
2018,08,09,13,17,26.40
2018,08,09,13,18,26.50
2018,08,09,13,19,26.60
2018,08,09,13,20,26.60
2018,08,09,13,21,26.60
2018,08,09,13,22,26.60
2018,08,09,13,23,26.70
2018,08,09,13,24,26.70
2018,08,09,13,25,26.80
2018,08,09,13,26,26.90
2018,08,09,13,27,27.00
2018,08,09,13,28,27.10
2018,08,09,13,29,27.10
2018,08,09,13,30,27.10
2018,08,09,13,31,27.10
2018,08,09,13,32,27.10
2018,08,09,13,33,27.20
2018,08,09,13,34,27.30
2018,08,09,13,35,27.30
2018,08,09,13,36,27.40
2018,08,09,13,37,27.50
2018,08,09,13,38,27.40
2018,08,09,13,39,27.40
2018,08,09,13,40,27.40
2018,08,09,13,41,27.40
2018,08,09,13,42,27.40
2018,08,09,13,43,27.30
2018,08,09,13,44,27.20
2018,08,09,13,45,27.20
2018,08,09,13,46,27.10
2018,08,09,13,47,27.10
2018,08,09,13,48,27.10
2018,08,09,13,49,27.10
2018,08,09,13,50,27.10
2018,08,09,13,51,27.20
2018,08,09,13,52,27.30
2018,08,09,13,53,27.30
2018,08,09,13,54,27.40
2018,08,09,13,55,27.50
2018,08,09,13,56,27.60
2018,08,09,13,57,27.60
2018,08,09,13,58,27.60
2018,08,09,13,59,27.70
2018,08,09,14,00,27.70
2018,08,09,14,01,27.80
2018,08,09,14,02,27.90
2018,08,09,14,03,27.90
2018,08,09,14,04,27.90
2018,08,09,14,05,27.90
2018,08,09,14,06,27.90
2018,08,09,14,07,28.00
2018,08,09,14,08,27.90
2018,08,09,14,09,27.80
2018,08,09,14,10,27.80
2018,08,09,14,11,27.80
2018,08,09,14,12,27.70
2018,08,09,14,13,27.50
2018,08,09,14,14,27.40
2018,08,09,14,15,27.20
2018,08,09,14,16,27.10
2018,08,09,14,17,27.10
2018,08,09,14,18,26.90
2018,08,09,14,19,26.90
2018,08,09,14,20,27.00
2018,08,09,14,21,27.20
2018,08,09,14,22,27.30
2018,08,09,14,23,27.50
2018,08,09,14,24,27.70
2018,08,09,14,25,27.80
2018,08,09,14,26,28.00
2018,08,09,14,27,28.10
2018,08,09,14,28,28.30
2018,08,09,14,29,28.40
2018,08,09,14,30,28.50
2018,08,09,14,31,28.50
2018,08,09,14,32,28.60
2018,08,09,14,33,28.60
2018,08,09,14,34,28.60
2018,08,09,14,35,28.70
2018,08,09,14,36,28.70
2018,08,09,14,37,28.60
2018,08,09,14,38,28.60
2018,08,09,14,39,28.50
2018,08,09,14,40,28.50
2018,08,09,14,41,28.50
2018,08,09,14,42,28.50
2018,08,09,14,43,28.60
2018,08,09,14,44,28.70
2018,08,09,14,45,28.80
2018,08,09,14,46,29.00
2018,08,09,14,47,29.20
2018,08,09,14,48,29.30
2018,08,09,14,49,29.20
2018,08,09,14,50,29.20
2018,08,09,14,51,29.10
2018,08,09,14,52,29.00
2018,08,09,14,53,28.80
2018,08,09,14,54,28.70
2018,08,09,14,55,28.60
2018,08,09,14,56,28.70
2018,08,09,14,57,28.70
2018,08,09,14,58,28.80
2018,08,09,14,59,28.80
2018,08,09,15,00,28.80
2018,08,09,15,01,28.80
2018,08,09,15,02,28.90
2018,08,09,15,03,29.00
2018,08,09,15,04,29.00
2018,08,09,15,05,29.10
2018,08,09,15,06,29.10
2018,08,09,15,07,29.30
2018,08,09,15,08,29.30
2018,08,09,15,09,29.50
2018,08,09,15,10,29.60
2018,08,09,15,11,29.80
2018,08,09,15,12,29.90
2018,08,09,15,13,29.80
2018,08,09,15,14,29.80
2018,08,09,15,15,29.90
2018,08,09,15,16,29.90
2018,08,09,15,17,29.80
2018,08,09,15,18,29.70
2018,08,09,15,19,29.60
2018,08,09,15,20,29.60
2018,08,09,15,21,29.40
2018,08,09,15,22,29.30
2018,08,09,15,23,29.30
2018,08,09,15,24,29.30
2018,08,09,15,25,29.20
2018,08,09,15,26,29.20
2018,08,09,15,27,29.10
2018,08,09,15,28,29.10
2018,08,09,15,29,29.20
2018,08,09,15,30,29.20
2018,08,09,15,31,29.20
2018,08,09,15,32,29.30
2018,08,09,15,33,29.30
2018,08,09,15,34,29.30
2018,08,09,15,35,29.40
2018,08,09,15,36,29.50
2018,08,09,15,37,29.50
2018,08,09,15,38,29.50
2018,08,09,15,39,29.50
2018,08,09,15,40,29.60
2018,08,09,15,41,29.70
2018,08,09,15,42,29.80
2018,08,09,15,43,29.90
2018,08,09,15,44,30.00
2018,08,09,15,45,30.10
2018,08,09,15,46,30.30
2018,08,09,15,47,30.50
2018,08,09,15,48,30.70
2018,08,09,15,49,30.90
2018,08,09,15,50,31.10
2018,08,09,15,51,31.30
2018,08,09,15,52,31.30
2018,08,09,15,53,31.30
2018,08,09,15,54,31.20
2018,08,09,15,55,31.10
2018,08,09,15,56,31.00
2018,08,09,15,57,30.80
2018,08,09,15,58,30.80
2018,08,09,15,59,30.80
2018,08,09,16,00,30.80
2018,08,09,16,01,30.80
2018,08,09,16,02,30.80
2018,08,09,16,03,30.80
2018,08,09,16,04,30.70
2018,08,09,16,05,30.60
2018,08,09,16,06,30.60
2018,08,09,16,07,30.50
2018,08,09,16,08,30.50
2018,08,09,16,09,30.40
2018,08,09,16,10,30.40
2018,08,09,16,11,30.50
2018,08,09,16,12,30.40
2018,08,09,16,13,30.40
2018,08,09,16,14,30.40
2018,08,09,16,15,30.50
2018,08,09,16,16,30.60
2018,08,09,16,17,30.60
2018,08,09,16,18,30.50
2018,08,09,16,19,30.40
2018,08,09,16,20,30.20
2018,08,09,16,21,30.20
2018,08,09,16,22,30.10
2018,08,09,16,23,30.00
2018,08,09,16,24,30.00
2018,08,09,16,25,29.90
2018,08,09,16,26,29.90
2018,08,09,16,27,29.90
2018,08,09,16,28,29.90
2018,08,09,16,29,29.80
2018,08,09,16,30,29.80
2018,08,09,16,31,29.70
2018,08,09,16,32,29.80
2018,08,09,16,33,29.90
2018,08,09,16,34,30.00
2018,08,09,16,35,30.10
2018,08,09,16,36,30.30
2018,08,09,16,37,30.30
2018,08,09,16,38,30.40
2018,08,09,16,39,30.40
2018,08,09,16,40,30.50
2018,08,09,16,41,30.50
2018,08,09,16,42,30.50
2018,08,09,16,43,30.50
2018,08,09,16,44,30.60
2018,08,09,16,45,30.50
2018,08,09,16,46,30.50
2018,08,09,16,47,30.50
2018,08,09,16,48,30.40
2018,08,09,16,49,30.40
2018,08,09,16,50,30.50
2018,08,09,16,51,30.50
2018,08,09,16,52,30.60
2018,08,09,16,53,30.60
2018,08,09,16,54,30.70
2018,08,09,16,55,30.80
2018,08,09,16,56,30.90
2018,08,09,16,57,30.90
2018,08,09,16,58,31.00
2018,08,09,16,59,31.00
2018,08,09,17,00,31.10
2018,08,09,17,01,31.20
2018,08,09,17,02,31.20
2018,08,09,17,03,31.20
2018,08,09,17,04,31.10
2018,08,09,17,05,31.10
2018,08,09,17,06,31.10
2018,08,09,17,07,31.10
2018,08,09,17,08,31.20
2018,08,09,17,09,31.20
2018,08,09,17,10,31.10
2018,08,09,17,11,31.00
2018,08,09,17,12,30.90
2018,08,09,17,13,30.80
2018,08,09,17,14,30.80
2018,08,09,17,15,30.80
2018,08,09,17,16,30.80
2018,08,09,17,17,30.80
2018,08,09,17,18,30.70
2018,08,09,17,19,30.50